Location: Cella
(44.7333°N, 10.5667°E)
Time: 13:07:03
(UTC+00:00)

COSMOS 1867 COOLANT - Pass Details

Date: 26 September 2021
Orbit: 770 x 802 km, 65.0° (Epoch: 15 October)

Event Time Altitude Azimuth Distance (km) Brightness Sun altitude
Rises 19:03:55 0° 329° (NNW) 3,321 ? -21.1°
Reaches altitude 10° 19:06:42 10° 341° (NNW) 2,387 ? -21.6°
Maximum altitude 19:11:25 29° 40° (NE) 1,454 ? -22.4°
Enters shadow 19:11:56 28° 50° (NE) 1,468 ? -22.5°
